Tracking 18673 objects as of 26-June-2017
HD Live streaming from Space Station
objects crossing your sky now

COSMOS 252 DEB

Track COSMOS 252 DEB now!
10-day predictions


NORAD ID: 3559
Int'l Code: 1968-097M
Perigee: 515.7 km
Apogee: 1,346.7 km
Inclination: 62.3 °
Period: 103.5 minutes
Semi major axis: 7302 km
RCS: 0.1149 m2 (medium)
Launch date: November 1, 1968
Source: Commonwealth of Independent States (former USSR) (CIS)
Launch site: TYURATAM MISSILE AND SPACE COMPLEX (TTMTR)

Note: This is SATELLITE DEBRIS
Your satellite tracking list
Your tracking list is empty





NASA's NSSDC Master Catalog

Two Line Element Set (TLE):
1  3559U 68097M   17176.47595011 +.00000316 +00000-0 +97889-4 0  9991
2  3559 062.2932 240.9274 0568968 151.3699 211.9878 13.91301508385353
Source of the keplerian elements: AFSPC